When you browse on this site, cookies collect data to enhance your experience and personalize the content and advertising you see.
Visit our Privacy Policy to learn more. By continuing to use the site, you agree to this use of cookies and data.

Meteo pe oră la Dziedno

Astăzi, 26 Septembrie, Sâmbătă

Timp Temperatura Precipitaţii Vânt Presiune Umiditate
00:00 +15°C° 0 mm 2 m/s 735 mmHg 91%
01:00 +15°C° 0 mm 2 m/s 735 mmHg 91%
02:00 +15°C° 0 mm 2 m/s 735 mmHg 92%
03:00 +14°C° 0 mm 3 m/s 734 mmHg 93%
04:00 +14°C° 0 mm 3 m/s 734 mmHg 94%
05:00 +16°C° 1.1 mm 3 m/s 734 mmHg 95%
06:00 +15°C° 1.1 mm 4 m/s 733 mmHg 95%
07:00 +15°C° 0 mm 4 m/s 733 mmHg 93%
08:00 +15°C° 0.7 mm 4 m/s 733 mmHg 92%
09:00 +17°C° 0.7 mm 4 m/s 733 mmHg 90%
10:00 +16°C° 0.7 mm 5 m/s 733 mmHg 89%
11:00 +17°C° 0 mm 5 m/s 732 mmHg 83%
12:00 +19°C° 0 mm 6 m/s 732 mmHg 76%
13:00 +20°C° 0 mm 7 m/s 732 mmHg 70%
14:00 +20°C° 0.1 mm 6 m/s 732 mmHg 73%
15:00 +19°C° 0.1 mm 6 m/s 732 mmHg 77%
16:00 +19°C° 0.1 mm 6 m/s 732 mmHg 80%
17:00 +17°C° 0 mm 5 m/s 733 mmHg 82%
18:00 +17°C° 0 mm 4 m/s 734 mmHg 84%
19:00 +17°C° 0 mm 3 m/s 735 mmHg 85%
20:00 +16°C° 0 mm 3 m/s 735 mmHg 86%
21:00 +15°C° 0 mm 2 m/s 736 mmHg 86%
22:00 +15°C° 0 mm 2 m/s 737 mmHg 86%
23:00 +14°C° 0.4 mm 2 m/s 737 mmHg 87%

Mâine, 27 Septembrie, Duminică

Timp Temperatura Precipitaţii Vânt Presiune Umiditate
00:00 +14°C° 0.4 mm 2 m/s 737 mmHg 88%
01:00 +12°C° 0.4 mm 3 m/s 737 mmHg 90%
02:00 +12°C° 1 mm 3 m/s 737 mmHg 91%
03:00 +12°C° 1 mm 3 m/s 737 mmHg 92%
04:00 +11°C° 1 mm 4 m/s 737 mmHg 93%
05:00 +12°C° 0.4 mm 4 m/s 737 mmHg 92%
06:00 +13°C° 0.4 mm 4 m/s 737 mmHg 91%
07:00 +13°C° 0.4 mm 4 m/s 737 mmHg 89%
08:00 +14°C° 1.2 mm 4 m/s 737 mmHg 89%
09:00 +14°C° 1.2 mm 4 m/s 737 mmHg 88%
10:00 +15°C° 1.2 mm 4 m/s 737 mmHg 87%
11:00 +17°C° 0.3 mm 4 m/s 737 mmHg 84%
12:00 +18°C° 0.3 mm 4 m/s 737 mmHg 80%
13:00 +18°C° 0.3 mm 4 m/s 737 mmHg 77%
14:00 +18°C° 0.1 mm 4 m/s 738 mmHg 78%
15:00 +17°C° 0.1 mm 4 m/s 738 mmHg 79%
16:00 +15°C° 0.1 mm 4 m/s 738 mmHg 79%
17:00 +14°C° 0.2 mm 3 m/s 739 mmHg 82%
18:00 +14°C° 0.2 mm 3 m/s 739 mmHg 84%
19:00 +14°C° 0.2 mm 2 m/s 739 mmHg 87%
20:00 +14°C° 0 mm 2 m/s 740 mmHg 88%
21:00 +12°C° 0 mm 3 m/s 740 mmHg 90%
22:00 +12°C° 0 mm 3 m/s 741 mmHg 91%
23:00 +11°C° 0 mm 3 m/s 741 mmHg 91%

Poimâine, 28 Septembrie, Luni

Timp Temperatura Precipitaţii Vânt Presiune Umiditate
00:00 +11°C° 0 mm 3 m/s 741 mmHg 91%
01:00 +10°C° 0 mm 4 m/s 742 mmHg 91%
02:00 +10°C° 0 mm 3 m/s 742 mmHg 91%
03:00 +10°C° 0 mm 3 m/s 742 mmHg 91%
04:00 +10°C° 0 mm 3 m/s 742 mmHg 91%
05:00 +10°C° 0.1 mm 4 m/s 743 mmHg 90%
06:00 +10°C° 0.1 mm 4 m/s 743 mmHg 90%
07:00 +9°C° 0.1 mm 5 m/s 744 mmHg 89%
08:00 +10°C° 0 mm 5 m/s 744 mmHg 84%
09:00 +12°C° 0 mm 5 m/s 745 mmHg 79%
10:00 +13°C° 0 mm 5 m/s 745 mmHg 74%
11:00 +14°C° 0 mm 5 m/s 745 mmHg 68%
12:00 +15°C° 0 mm 5 m/s 746 mmHg 63%
13:00 +16°C° 0 mm 5 m/s 746 mmHg 57%
14:00 +17°C° 0 mm 4 m/s 746 mmHg 57%
15:00 +17°C° 0 mm 4 m/s 746 mmHg 56%
16:00 +17°C° 0 mm 3 m/s 746 mmHg 56%
17:00 +16°C° 0 mm 3 m/s 746 mmHg 59%
18:00 +15°C° 0 mm 2 m/s 747 mmHg 62%
19:00 +14°C° 0 mm 2 m/s 747 mmHg 65%
20:00 +14°C° 0 mm 2 m/s 747 mmHg 66%
21:00 +14°C° 0 mm 2 m/s 747 mmHg 67%
22:00 +14°C° 0 mm 1 m/s 747 mmHg 68%
23:00 +14°C° 0 mm 2 m/s 747 mmHg 69%

29 Septembrie, Marţi

Timp Temperatura Precipitaţii Vânt Presiune Umiditate
00:00 +13°C° 0 mm 2 m/s 747 mmHg 70%
01:00 +13°C° 0 mm 2 m/s 747 mmHg 70%
02:00 +13°C° 0 mm 2 m/s 747 mmHg 71%
03:00 +13°C° 0 mm 2 m/s 747 mmHg 72%
04:00 +13°C° 0 mm 2 m/s 747 mmHg 73%
05:00 +13°C° 0 mm 2 m/s 747 mmHg 74%
06:00 +13°C° 0 mm 1 m/s 747 mmHg 75%
07:00 +13°C° 0 mm 1 m/s 747 mmHg 76%
08:00 +15°C° 0 mm 1 m/s 747 mmHg 72%
09:00 +16°C° 0 mm 1 m/s 748 mmHg 67%
10:00 +18°C° 0 mm 1 m/s 748 mmHg 63%
11:00 +18°C° 0 mm 2 m/s 748 mmHg 60%
12:00 +19°C° 0 mm 2 m/s 748 mmHg 57%
13:00 +20°C° 0 mm 2 m/s 748 mmHg 54%
14:00 +20°C° 0 mm 2 m/s 748 mmHg 55%
15:00 +20°C° 0 mm 2 m/s 748 mmHg 56%
16:00 +19°C° 0 mm 2 m/s 748 mmHg 56%
17:00 +18°C° 0 mm 2 m/s 748 mmHg 63%
18:00 +16°C° 0 mm 2 m/s 748 mmHg 69%
19:00 +15°C° 0 mm 2 m/s 748 mmHg 75%
20:00 +14°C° 0 mm 2 m/s 748 mmHg 79%
21:00 +14°C° 0 mm 2 m/s 748 mmHg 83%
22:00 +13°C° 0 mm 2 m/s 748 mmHg 87%
23:00 +13°C° 0 mm 2 m/s 748 mmHg 88%

30 Septembrie, Miercuri

Timp Temperatura Precipitaţii Vânt Presiune Umiditate
00:00 +13°C° 0 mm 2 m/s 748 mmHg 89%
01:00 +13°C° 0 mm 1 m/s 748 mmHg 89%
02:00 +13°C° 0 mm 2 m/s 748 mmHg 90%
03:00 +13°C° 0 mm 2 m/s 748 mmHg 90%
04:00 +13°C° 0 mm 2 m/s 748 mmHg 90%
05:00 +13°C° 0 mm 2 m/s 748 mmHg 88%
06:00 +13°C° 0 mm 2 m/s 748 mmHg 87%
07:00 +14°C° 0 mm 2 m/s 748 mmHg 85%
08:00 +15°C° 0 mm 2 m/s 748 mmHg 80%
09:00 +16°C° 0 mm 2 m/s 748 mmHg 75%
10:00 +17°C° 0 mm 2 m/s 748 mmHg 70%
11:00 +18°C° 0 mm 2 m/s 748 mmHg 66%
12:00 +19°C° 0 mm 3 m/s 748 mmHg 62%
13:00 +20°C° 0 mm 3 m/s 747 mmHg 58%
14:00 +19°C° 0 mm 3 m/s 747 mmHg 60%
15:00 +19°C° 0 mm 3 m/s 747 mmHg 61%
16:00 +19°C° 0 mm 3 m/s 746 mmHg 63%
17:00 +18°C° 0 mm 3 m/s 746 mmHg 69%
18:00 +17°C° 0 mm 3 m/s 746 mmHg 74%
19:00 +14°C° 0 mm 3 m/s 746 mmHg 79%
20:00 +14°C° 0 mm 3 m/s 746 mmHg 83%
21:00 +13°C° 0 mm 3 m/s 746 mmHg 87%
22:00 +13°C° 0 mm 2 m/s 745 mmHg 90%
23:00 +13°C° 0 mm 2 m/s 745 mmHg 92%

1 Octombrie, Joi

Timp Temperatura Precipitaţii Vânt Presiune Umiditate
00:00 +13°C° 0 mm 2 m/s 745 mmHg 93%
01:00 +13°C° 0 mm 2 m/s 744 mmHg 94%
02:00 +13°C° 0 mm 2 m/s 744 mmHg 94%
03:00 +13°C° 0 mm 2 m/s 744 mmHg 94%
04:00 +13°C° 0 mm 2 m/s 743 mmHg 94%
05:00 +13°C° 0.3 mm 2 m/s 743 mmHg 94%
06:00 +13°C° 0.3 mm 2 m/s 743 mmHg 94%
07:00 +14°C° 0.3 mm 2 m/s 742 mmHg 93%
08:00 +14°C° 0.1 mm 2 m/s 742 mmHg 91%
09:00 +14°C° 0.1 mm 2 m/s 742 mmHg 88%
10:00 +14°C° 0.1 mm 1 m/s 741 mmHg 86%
11:00 +14°C° 0.3 mm 1 m/s 741 mmHg 87%
12:00 +14°C° 0.3 mm 1 m/s 740 mmHg 87%
13:00 +14°C° 0.3 mm 1 m/s 740 mmHg 88%
14:00 +13°C° 1.2 mm 1 m/s 740 mmHg 90%
15:00 +13°C° 1.2 mm 1 m/s 739 mmHg 92%
16:00 +13°C° 1.2 mm 1 m/s 739 mmHg 95%
17:00 +12°C° 1.4 mm 1 m/s 739 mmHg 95%
18:00 +12°C° 1.4 mm 1 m/s 738 mmHg 96%
19:00 +12°C° 1.4 mm 1 m/s 738 mmHg 96%
20:00 +12°C° 1 mm 2 m/s 738 mmHg 96%
21:00 +13°C° 1 mm 2 m/s 738 mmHg 96%
22:00 +13°C° 1 mm 2 m/s 738 mmHg 96%
23:00 +13°C° 0.3 mm 2 m/s 738 mmHg 96%
Arată mai mult